User: anonymous   Login
Location: Boquerón
(10.0687°N, 67.9212°W)
Time: 17:12:24
(UTC+00:00)
Language:

USA 290 - Orbit

View from above orbital plane
View from above orbital plane
View from above satellite
View from above satellite

Ground track
Ground track

The orbit data is extracted from the following two-line orbital elements,

1 43941U 19004A   24198.93712034 0.00007000  00000-0  10827-3 0    09
2 43941  73.5921 256.4800 0011999  51.3164 308.6835 15.53866429    06
Epoch (UTC): 16 July 2024 22:29:27
Eccentricity: 0.0011999
inclination: 73.5921°
perigee height: 397 km
apogee height: 413 km
right ascension of ascending node: 256.4800°
argument of perigee: 51.3164°
revolutions per day: 15.53866429
mean anomaly at epoch: 308.6835°
orbit number at epoch: 0

The dashed part of the orbit path shows where the satellite is in the earth's shadow,  

DLR